{"data":{"norad_id":62075,"intl_designator":"2024-217U","name":"STARLINK-32580","alt_names":[],"object_type":"PAYLOAD","status":"ACTIVE","operator":null,"country":"US","launch_date":"2024-11-24","launch_site_code":"AFWTR","launch_vehicle":null,"mission":null,"orbit_class":"UNKNOWN","rcs_meters":null,"size_class":null,"mass_kg":null,"dimensions":null,"purposes":["comms"],"wikipedia_slug":null,"has_3d_model":false,"image_url":null,"decayed_at":null,"tle_current":{"epoch":"2026-09-21T17:13:05.716992Z","epoch_age_seconds":76292,"freshness":"FRESH","line1":"1 62075U 24217U   26264.71742728  .00014586  00000+0  44192-3 0  9990","line2":"2 62075  53.1602 349.9079 0001183  78.8004 281.3132 15.34404388103622","mean_motion":15.34404388,"eccentricity":0.0001183,"inclination_deg":53.1602,"raan_deg":349.9079,"arg_perigee_deg":78.8004,"mean_anomaly_deg":281.3132,"bstar":0.00044192,"rev_number":10362,"period_min":93.847489701001,"perigee_km":461.88092831991,"apogee_km":463.499468035,"semimajor_km":6840.8271981775,"source":"CELESTRAK","updated_at":"2026-09-22T09:00:49.495511Z"}}}